Location: Fours
(44.3167°N, 6.7000°E)
Time: 05:30:39
(UTC+00:00)

Cosmos 2218 Rocket - Pass Details

Date: 06 June 2022
Orbit: 956 x 1005 km, 82.9° (Epoch: 03 July)

Event Time Altitude Azimuth Distance (km) Brightness Sun altitude
Rises 03:08:45 0° 337° (NNW) 3,697 7.3 -6.7°
Reaches altitude 10° 03:12:08 10° 318° (NW) 2,753 6.4 -6.3°
Maximum altitude 03:16:02 17° 280° (W) 2,260 5.6 -5.7°
Drops below altitude 10° 03:19:58 10° 241° (WSW) 2,761 5.7 -5.2°
Enters shadow 03:21:27 - 232° (SW) 3,138 5.9 -5.0°
